Starlink 32105

operational
NORAD ID: 59689 Int'l Des: 2024-086 Owner: SPXS Country: US Constellation: starlink
LEOCIRCULAR

关于 Starlink 32105

正在加载描述...

实时位置

正在加载3D地球...

即将过境

高度历史

Altitude vs Time

uPlot chart will show altitude changes over time

两行轨道根数

1 59689U 24086H 26035.00501402 -.00000437 00000-0 -63693-5 0 9993
2 59689 43.0008 249.8627 0001262 271.2338 88.8369 15.27580402 98967
Epoch: Feb 4, 2026 • Age: 13 hours

当前状态

高度 486.2 km
速度 7.63 km/s
星下点 39.67°N, 20.31°W
发射日期 May 8, 2024
运行时间 1.7 years
类型 internet

技术详情

分类 Payload
质量 730.00 kg
干质量 700.00 kg
总质量 730.00 kg
长度 0.30 m
直径 4.10 m
跨度 29.00 m
形状 Box + pan
制造商 SPXS
平台类型 Starlink V2M
阶段状态 In Orbit
所有者/国家 SPXS/US

大型星座

Loading constellations...